Voltar ao catálogo

OPS 5112

NAVSTAR 2

AtivoNavegaçãoHEO
NORAD 10893·PAYLOAD·🇺🇸 United States

Lançado May 13, 1978 de Vandenberg Space Force Base

Loading…

Próximas Passagens (próximas 24 horas)

TLE

AtualizadoSource: Space-Track

Época: Sep 14, 2026, 10:56 UTC

1 10893U 78047A   26257.45613130  .00000007  00000-0  00000-0 0  9999
2 10893  62.6104 269.3521 0548102  41.2680 325.5491  2.01627277355535

Acompanhe OPS 5112 em tempo real com AllMySat

Download on the App Store